Location: Dannhausen
(51.8650°N, 10.1026°E)
Time: 08:58:02
(UTC+00:00)

Cosmos 1356 Rocket - Pass Details

Date: 09 April 2020
Orbit: 542 x 599 km, 81.2° (Epoch: 01 June)

Event Time Altitude Azimuth Distance (km) Brightness Sun altitude
Exits shadow 20:13:35 39° 114° (ESE) 903 3.9 -18.0°
Maximum altitude 20:14:06 40° 95° (E) 874 3.9 -18.1°
Drops below altitude 10° 20:18:05 10° 26° (NNE) 1,920 6.3 -18.5°
Sets 20:20:22 0° 19° (NNE) 2,816 7.3 -18.8°
